User: anonymous   Login
Location: ???? ??????? ????
(31.2176°N, 31.6797°E)
Time: 11:14:37
(UTC+00:00)
Language:

Cosmos 2082 - Orbit

View from above orbital plane
View from above orbital plane
View from above satellite
View from above satellite

Ground track
Ground track

The orbit data is extracted from the following two-line orbital elements,

1 20624U 90046A   21023.17368674 -.00000092  00000-0 -23328-4 0  9998
2 20624  71.0426 339.9159 0015110 190.2122 169.8696 14.14354539583257
Epoch (UTC): 23 January 2021 04:10:06
Eccentricity: 0.0015110
inclination: 71.0426°
perigee height: 833 km
apogee height: 855 km
right ascension of ascending node: 339.9159°
argument of perigee: 190.2122°
revolutions per day: 14.14354539
mean anomaly at epoch: 169.8696°
orbit number at epoch: 58325

The dashed part of the orbit path shows where the satellite is in the earth's shadow,  

DLR